,

(GMT )
Banff

Weather History for CWZG - December, 2012

Change the Weather History Date:

Tuesday, December 11, 2012

  Actual Average Record
Temperature  
Mean Temperature 27 °F -  
Max Temperature 31 °F - - ()
Min Temperature 23 °F - - ()
Degree Days  
Heating Degree Days 38    
Moisture  
Dew Point 18 °F    
Average Humidity 70    
Maximum Humidity 83    
Minimum Humidity 49    
Precipitation  
Precipitation 0.35 in - - ()
Sea Level Pressure  
Sea Level Pressure 29.59 in    
Wind  
Wind Speed 8 mph ()    
Max Wind Speed 13 mph    
Max Gust Speed 22 mph    
T = Trace of Precipitation, MM = Missing Value Source: Averaged Metar Reports

Daily Weather History Graph

Daily Weather History Graph

Search for Another Location

Airport or City:

Trip Planner

Search our weather history database for the weather conditions in past years. The results will help you decide how hot, cold, wet, or windy it might be!

Date:

Astronomy

Dec. 11, 2012 Rise Set
Actual Time 8:36 AM MST 4:34 PM MST
Civil Twilight 7:57 AM MST 5:14 PM MST
Nautical Twilight 7:14 AM MST 5:56 PM MST
Astronomical Twilight 6:34 AM MST 6:37 PM MST
Moon 6:30 AM MST (12/11) 3:22 PM MST (12/11)
Length of Visible Light 9h 17m
Length of Day
7h 57m
Waning Crescent, 4% of the Moon is Illuminated
Dec 11
Waning Crescent
Dec 13
New
Dec 19
First Quarter
Dec 28
Full
Jan 4
Last Quarter

Hourly Weather History & Observations

Time (MST) Temp. Windchill Dew Point Humidity Pressure Visibility Wind Dir Wind Speed Gust Speed Precip Events Conditions
12:00 AM 27.0 °F 17.3 °F 18.0 °F 69% 29.81 in - SW 10.4 mph - N/A   Unknown
1:00 AM 25.2 °F 15.1 °F 17.8 °F 74% 29.78 in - SW 10.4 mph 18.4 mph N/A   Unknown
2:00 AM 26.1 °F 18.4 °F 19.2 °F 75% 29.72 in - SW 6.9 mph - N/A   Unknown
3:00 AM 23.7 °F 14.0 °F 18.5 °F 80% 29.69 in - SW 9.2 mph - N/A   Unknown
4:00 AM 23.9 °F 13.5 °F 19.2 °F 82% 29.64 in - SW 10.4 mph 18.4 mph N/A   Unknown
5:00 AM 24.1 °F 13.1 °F 19.6 °F 83% 29.60 in - SW 11.5 mph 18.4 mph N/A   Unknown
6:00 AM 25.0 °F 14.8 °F 19.4 °F 79% 29.57 in - SW 10.4 mph 19.6 mph N/A   Unknown
7:00 AM 25.0 °F 14.2 °F 19.4 °F 79% 29.56 in - WSW 11.5 mph 21.9 mph N/A   Unknown
8:00 AM 25.0 °F 13.6 °F 19.4 °F 79% 29.55 in - SW 12.7 mph 20.7 mph N/A   Unknown
9:00 AM 29.5 °F 20.4 °F 18.0 °F 62% 29.54 in - WSW 10.4 mph 17.3 mph N/A   Unknown
10:00 AM 30.2 °F 21.3 °F 17.2 °F 59% 29.55 in - WSW 10.4 mph 17.3 mph N/A   Unknown
11:00 AM 30.7 °F 24.9 °F 15.8 °F 54% 29.54 in - West 5.8 mph - N/A   Unknown
12:00 PM 31.8 °F 25.4 °F 14.4 °F 49% 29.53 in - WSW 6.9 mph - N/A   Unknown
1:00 PM 31.8 °F 24.6 °F 16.0 °F 52% 29.53 in - WSW 8.1 mph - N/A   Unknown
2:00 PM 30.6 °F 23.8 °F 17.2 °F 58% 29.54 in - WSW 6.9 mph - N/A   Unknown
3:00 PM 30.0 °F 22.4 °F 18.1 °F 61% 29.54 in - SW 8.1 mph - N/A   Unknown
4:00 PM 30.0 °F 23.2 °F 17.4 °F 59% 29.54 in - WSW 6.9 mph - N/A   Unknown
5:00 PM 28.0 °F 21.7 °F 18.0 °F 66% 29.55 in - SW 5.8 mph - N/A   Unknown
6:00 PM 25.7 °F 19.0 °F 17.8 °F 72% 29.57 in - SW 5.8 mph - N/A   Unknown
7:00 PM 25.5 °F 18.7 °F 18.9 °F 76% 29.57 in - WSW 5.8 mph - N/A   Unknown
8:00 PM 24.8 °F 17.9 °F 18.7 °F 78% 29.56 in - SW 5.8 mph - N/A   Unknown
9:00 PM 23.9 °F 18.0 °F 18.7 °F 80% 29.55 in - SSW 4.6 mph - N/A   Unknown
10:00 PM 24.1 °F 16.0 °F 19.0 °F 81% 29.57 in - WSW 6.9 mph - N/A   Unknown
11:00 PM 23.5 °F 16.4 °F 18.7 °F 82% 29.59 in - SW 5.8 mph - N/A   Unknown